FENGYUN 1C DEB, 32221

Orbit data source: Space-Track

FENGYUN 1C DEB, 32221 is space debris in SSO originally from a launch on Mon, 10 May 1999 UTC launched from the Taiyaun Space Center, China (TSC). Fengyun 1C debris stems from the Chinese weather satellite Fengyun-1C, which was intentionally destroyed by a Chinese anti-satellite missile in 2007. This event dramatically increased the amount of space debris, with thousands of trackable fragments posing hazards to satellites and human spaceflight. The Fengyun 1C debris cloud has become a focal point in discussions about space sustainability and the need for international regulations to prevent the creation of new debris.

Loading next visibility...
Identifier
32221, 1999-025CVT
Orbit
SSO
Country
Flag of CNCN / PRC
Related business
Manufacturer
Unknown
Mission
Spacecraft
Bus & Motor
Unknown
Mass
Unknown
Launch date (UTC)
1999-05-10 (27 years ago)
Launch vehicle
Unknown
Launch site
Taiyaun Space Center, China (TSC)
Object type
Payload
Rocket body
Debris
Shape & HBR
Unknown shape, 0.1 m
Radar Cross Section
Small (<0.1 m²)

Expand to show TLE details & history
Last TLE update: 13 hours ago

TLE from 13 hours ago
0 FENGYUN 1C DEB
1 32221U 99025CVT 26106.88351639  .00000994  00000-0  19217-3 0  9998
2 32221  98.5837 265.8788 0146213 120.1920 241.3853 14.59170802990223
Epoch: 2026-04-16T21:12Z
TLE epoch observation values (Epoch: 2026-04-16T21:12:15.816Z)
Latitude
0.00002°
Longitude
102.78823°
Altitude
749.525 km
Speed
7.453 km/s
True Right ascension
17h 43m 30s
True Declination
0° 00' 00"
Sunlit
Object was in full shadow at epoch
Visualization orbit readout
Latitude
Unknown
Longitude
Unknown
Altitude
Unknown
Speed
Unknown
Apparent Right ascension
Unknown
Apparent Declination
Unknown
Sunlit
N/A
Visualization observer readout
Local Sidereal Time
17:07:48
Azimuth
Unknown
Elevation
Unknown
Doppler factor
Unknown
Orbital elements
Apogee altitude
796.341 km
Perigee altitude
589.564 km
Semi-major axis
7,071.089 km
Eccentricity
0.01462
Inclination
98.5837°
RAAN
265.8788°
Arg. of periapsis
120.192°
True anomaly
239.92739°
Mean anomaly
241.3853°
Eccentric anomaly
240.65506°
Mean motion
3.65018 °/min
Orbital period
98.63 mins
BSTAR
0.00019217
Loading maneuver chart data...
Computing Atmospheric mass density...

Documentation

Showing up to 5 results
|